Year,Month,Day,Hour,Minute,Value (Times are PST for temperature in C)
2019,06,21,00,00,15.40
2019,06,21,00,01,15.40
2019,06,21,00,02,15.40
2019,06,21,00,03,15.40
2019,06,21,00,04,15.40
2019,06,21,00,05,15.40
2019,06,21,00,06,15.40
2019,06,21,00,07,15.40
2019,06,21,00,08,15.40
2019,06,21,00,09,15.30
2019,06,21,00,10,15.30
2019,06,21,00,11,15.30
2019,06,21,00,12,15.30
2019,06,21,00,13,15.30
2019,06,21,00,14,15.30
2019,06,21,00,15,15.30
2019,06,21,00,16,15.30
2019,06,21,00,17,15.20
2019,06,21,00,18,15.20
2019,06,21,00,19,15.20
2019,06,21,00,20,15.20
2019,06,21,00,21,15.20
2019,06,21,00,22,15.20
2019,06,21,00,23,15.20
2019,06,21,00,24,15.20
2019,06,21,00,25,15.20
2019,06,21,00,26,15.20
2019,06,21,00,27,15.20
2019,06,21,00,28,15.20
2019,06,21,00,29,15.20
2019,06,21,00,30,15.20
2019,06,21,00,31,15.20
2019,06,21,00,32,15.30
2019,06,21,00,33,15.20
2019,06,21,00,34,15.20
2019,06,21,00,35,15.20
2019,06,21,00,36,15.20
2019,06,21,00,37,15.20
2019,06,21,00,38,15.20
2019,06,21,00,39,15.20
2019,06,21,00,40,15.10
2019,06,21,00,41,15.10
2019,06,21,00,42,15.10
2019,06,21,00,43,15.10
2019,06,21,00,44,15.10
2019,06,21,00,45,15.10
2019,06,21,00,46,15.10
2019,06,21,00,47,15.10
2019,06,21,00,48,15.10
2019,06,21,00,49,15.10
2019,06,21,00,50,15.10
2019,06,21,00,51,15.10
2019,06,21,00,52,15.10
2019,06,21,00,53,15.10
2019,06,21,00,54,15.10
2019,06,21,00,55,15.10
2019,06,21,00,56,15.10
2019,06,21,00,57,15.10
2019,06,21,00,58,15.10
2019,06,21,00,59,15.10
2019,06,21,01,00,15.10
2019,06,21,01,01,15.10
2019,06,21,01,02,15.10
2019,06,21,01,03,15.10
2019,06,21,01,04,15.00
2019,06,21,01,05,15.00
2019,06,21,01,06,15.00
2019,06,21,01,07,15.00
2019,06,21,01,08,14.90
2019,06,21,01,09,14.90
2019,06,21,01,10,14.90
2019,06,21,01,11,14.80
2019,06,21,01,12,14.80
2019,06,21,01,13,14.70
2019,06,21,01,14,14.70
2019,06,21,01,15,14.60
2019,06,21,01,16,14.60
2019,06,21,01,17,14.50
2019,06,21,01,18,14.40
2019,06,21,01,19,14.30
2019,06,21,01,20,14.30
2019,06,21,01,21,14.20
2019,06,21,01,22,14.10
2019,06,21,01,23,14.00
2019,06,21,01,24,13.90
2019,06,21,01,25,13.80
2019,06,21,01,26,13.80
2019,06,21,01,27,13.70
2019,06,21,01,28,13.70
2019,06,21,01,29,13.60
2019,06,21,01,30,13.60
2019,06,21,01,31,13.50
2019,06,21,01,32,13.50
2019,06,21,01,33,13.40
2019,06,21,01,34,13.40
2019,06,21,01,35,13.30
2019,06,21,01,36,13.30
2019,06,21,01,37,13.30
2019,06,21,01,38,13.30
2019,06,21,01,39,13.20
2019,06,21,01,40,13.20
2019,06,21,01,41,13.20
2019,06,21,01,42,13.10
2019,06,21,01,43,13.10
2019,06,21,01,44,13.00
2019,06,21,01,45,13.00
2019,06,21,01,46,13.00
2019,06,21,01,47,12.90
2019,06,21,01,48,12.90
2019,06,21,01,49,12.80
2019,06,21,01,50,12.80
2019,06,21,01,51,12.80
2019,06,21,01,52,12.70
2019,06,21,01,53,12.70
2019,06,21,01,54,12.60
2019,06,21,01,55,12.60
2019,06,21,01,56,12.60
2019,06,21,01,57,12.50
2019,06,21,01,58,12.50
2019,06,21,01,59,12.40
2019,06,21,02,00,12.40
2019,06,21,02,01,12.40
2019,06,21,02,02,12.30
2019,06,21,02,03,12.30
2019,06,21,02,04,12.30
2019,06,21,02,05,12.20
2019,06,21,02,06,12.20
2019,06,21,02,07,12.20
2019,06,21,02,08,12.10
2019,06,21,02,09,12.10
2019,06,21,02,10,12.00
2019,06,21,02,11,12.00
2019,06,21,02,12,11.90
2019,06,21,02,13,11.90
2019,06,21,02,14,11.80
2019,06,21,02,15,11.80
2019,06,21,02,16,11.80
2019,06,21,02,17,11.70
2019,06,21,02,18,11.70
2019,06,21,02,19,11.60
2019,06,21,02,20,11.60
2019,06,21,02,21,11.60
2019,06,21,02,22,11.60
2019,06,21,02,23,11.50
2019,06,21,02,24,11.50
2019,06,21,02,25,11.40
2019,06,21,02,26,11.40
2019,06,21,02,27,11.40
2019,06,21,02,28,11.40
2019,06,21,02,29,11.30
2019,06,21,02,30,11.30
2019,06,21,02,31,11.30
2019,06,21,02,32,11.20
2019,06,21,02,33,11.20
2019,06,21,02,34,11.20
2019,06,21,02,35,11.20
2019,06,21,02,36,11.10
2019,06,21,02,37,11.10
2019,06,21,02,38,11.10
2019,06,21,02,39,11.10
2019,06,21,02,40,11.00
2019,06,21,02,41,11.00
2019,06,21,02,42,11.00
2019,06,21,02,43,11.00
2019,06,21,02,44,11.00
2019,06,21,02,45,10.90
2019,06,21,02,46,10.90
2019,06,21,02,47,10.90
2019,06,21,02,48,10.90
2019,06,21,02,49,10.90
2019,06,21,02,50,10.90
2019,06,21,02,51,10.80
2019,06,21,02,52,10.80
2019,06,21,02,53,10.80
2019,06,21,02,54,10.80
2019,06,21,02,55,10.80
2019,06,21,02,56,10.80
2019,06,21,02,57,10.80
2019,06,21,02,58,10.70
2019,06,21,02,59,10.70
2019,06,21,03,00,10.70
2019,06,21,03,01,10.70
2019,06,21,03,02,10.70
2019,06,21,03,03,10.60
2019,06,21,03,04,10.60
2019,06,21,03,05,10.60
2019,06,21,03,06,10.60
2019,06,21,03,07,10.50
2019,06,21,03,08,10.50
2019,06,21,03,09,10.50
2019,06,21,03,10,10.50
2019,06,21,03,11,10.50
2019,06,21,03,12,10.40
2019,06,21,03,13,10.40
2019,06,21,03,14,10.40
2019,06,21,03,15,10.40
2019,06,21,03,16,10.40
2019,06,21,03,17,10.40
2019,06,21,03,18,10.30
2019,06,21,03,19,10.30
2019,06,21,03,20,10.30
2019,06,21,03,21,10.30
2019,06,21,03,22,10.30
2019,06,21,03,23,10.30
2019,06,21,03,24,10.30
2019,06,21,03,25,10.20
2019,06,21,03,26,10.20
2019,06,21,03,27,10.20
2019,06,21,03,28,10.20
2019,06,21,03,29,10.20
2019,06,21,03,30,10.20
2019,06,21,03,31,10.20
2019,06,21,03,32,10.20
2019,06,21,03,33,10.10
2019,06,21,03,34,10.10
2019,06,21,03,35,10.10
2019,06,21,03,36,10.10
2019,06,21,03,37,10.10
2019,06,21,03,38,10.00
2019,06,21,03,39,10.00
2019,06,21,03,40,10.00
2019,06,21,03,41,10.00
2019,06,21,03,42,9.90
2019,06,21,03,43,9.90
2019,06,21,03,44,9.90
2019,06,21,03,45,9.90
2019,06,21,03,46,9.80
2019,06,21,03,47,9.80
2019,06,21,03,48,9.80
2019,06,21,03,49,9.80
2019,06,21,03,50,9.80
2019,06,21,03,51,9.80
2019,06,21,03,52,9.70
2019,06,21,03,53,9.70
2019,06,21,03,54,9.70
2019,06,21,03,55,9.70
2019,06,21,03,56,9.70
2019,06,21,03,57,9.70
2019,06,21,03,58,9.60
2019,06,21,03,59,9.60
2019,06,21,04,00,9.60
2019,06,21,04,01,9.60
2019,06,21,04,02,9.60
2019,06,21,04,03,9.60
2019,06,21,04,04,9.60
2019,06,21,04,05,9.60
2019,06,21,04,06,9.60
2019,06,21,04,07,9.50
2019,06,21,04,08,9.50
2019,06,21,04,09,9.50
2019,06,21,04,10,9.50
2019,06,21,04,11,9.50
2019,06,21,04,12,9.50
2019,06,21,04,13,9.40
2019,06,21,04,14,9.40
2019,06,21,04,15,9.40
2019,06,21,04,16,9.40
2019,06,21,04,17,9.40
2019,06,21,04,18,9.40
2019,06,21,04,19,9.40
2019,06,21,04,20,9.40
2019,06,21,04,21,9.40
2019,06,21,04,22,9.40
2019,06,21,04,23,9.40
2019,06,21,04,24,9.40
2019,06,21,04,25,9.40
2019,06,21,04,26,9.40
2019,06,21,04,27,9.40
2019,06,21,04,28,9.30
2019,06,21,04,29,9.30
2019,06,21,04,30,9.30
2019,06,21,04,31,9.30
2019,06,21,04,32,9.30
2019,06,21,04,33,9.30
2019,06,21,04,34,9.30
2019,06,21,04,35,9.30
2019,06,21,04,36,9.30
2019,06,21,04,37,9.20
2019,06,21,04,38,9.20
2019,06,21,04,39,9.20
2019,06,21,04,40,9.20
2019,06,21,04,41,9.20
2019,06,21,04,42,9.20
2019,06,21,04,43,9.10
2019,06,21,04,44,9.10
2019,06,21,04,45,9.10
2019,06,21,04,46,9.10
2019,06,21,04,47,9.10
2019,06,21,04,48,9.10
2019,06,21,04,49,9.10
2019,06,21,04,50,9.10
2019,06,21,04,51,9.10
2019,06,21,04,52,9.10
2019,06,21,04,53,9.00
2019,06,21,04,54,9.00
2019,06,21,04,55,9.00
2019,06,21,04,56,9.00
2019,06,21,04,57,8.90
2019,06,21,04,58,8.90
2019,06,21,04,59,8.90
2019,06,21,05,00,8.90
2019,06,21,05,01,8.90
2019,06,21,05,02,8.90
2019,06,21,05,03,8.80
2019,06,21,05,04,8.80
2019,06,21,05,05,8.80
2019,06,21,05,06,8.80
2019,06,21,05,07,8.80
2019,06,21,05,08,8.80
2019,06,21,05,09,8.80
2019,06,21,05,10,8.80
2019,06,21,05,11,8.80
2019,06,21,05,12,8.80
2019,06,21,05,13,8.80
2019,06,21,05,14,8.80
2019,06,21,05,15,8.70
2019,06,21,05,16,8.70
2019,06,21,05,17,8.70
2019,06,21,05,18,8.70
2019,06,21,05,19,8.70
2019,06,21,05,20,8.70
2019,06,21,05,21,8.70
2019,06,21,05,22,8.70
2019,06,21,05,23,8.70
2019,06,21,05,24,8.70
2019,06,21,05,25,8.70
2019,06,21,05,26,8.70
2019,06,21,05,27,8.70
2019,06,21,05,28,8.70
2019,06,21,05,29,8.60
2019,06,21,05,30,8.60
2019,06,21,05,31,8.60
2019,06,21,05,32,8.60
2019,06,21,05,33,8.60
2019,06,21,05,34,8.60
2019,06,21,05,35,8.60
2019,06,21,05,36,8.60
2019,06,21,05,37,8.60
2019,06,21,05,38,8.60
2019,06,21,05,39,8.60
2019,06,21,05,40,8.60
2019,06,21,05,41,8.60
2019,06,21,05,42,8.60
2019,06,21,05,43,8.60
2019,06,21,05,44,8.60
2019,06,21,05,45,8.60
2019,06,21,05,46,8.50
2019,06,21,05,47,8.50
2019,06,21,05,48,8.50
2019,06,21,05,49,8.50
2019,06,21,05,50,8.50
2019,06,21,05,51,8.50
2019,06,21,05,52,8.50
2019,06,21,05,53,8.50
2019,06,21,05,54,8.50
2019,06,21,05,55,8.50
2019,06,21,05,56,8.50
2019,06,21,05,57,8.40
2019,06,21,05,58,8.40
2019,06,21,05,59,8.40
2019,06,21,06,00,8.40
2019,06,21,06,01,8.40
2019,06,21,06,02,8.40
2019,06,21,06,03,8.40
2019,06,21,06,04,8.40
2019,06,21,06,05,8.40
2019,06,21,06,06,8.40
2019,06,21,06,07,8.40
2019,06,21,06,08,8.40
2019,06,21,06,09,8.40
2019,06,21,06,10,8.50
2019,06,21,06,11,8.50
2019,06,21,06,12,8.50
2019,06,21,06,13,8.50
2019,06,21,06,14,8.50
2019,06,21,06,15,8.50
2019,06,21,06,16,8.50
2019,06,21,06,17,8.50
2019,06,21,06,18,8.50
2019,06,21,06,19,8.50
2019,06,21,06,20,8.50
2019,06,21,06,21,8.50
2019,06,21,06,22,8.50
2019,06,21,06,23,8.40
2019,06,21,06,24,8.50
2019,06,21,06,25,8.40
2019,06,21,06,26,8.50
2019,06,21,06,27,8.50
2019,06,21,06,28,8.50
2019,06,21,06,29,8.50
2019,06,21,06,30,8.50
2019,06,21,06,31,8.50
2019,06,21,06,32,8.50
2019,06,21,06,33,8.40
2019,06,21,06,34,8.40
2019,06,21,06,35,8.50
2019,06,21,06,36,8.40
2019,06,21,06,37,8.40
2019,06,21,06,38,8.50
2019,06,21,06,39,8.50
2019,06,21,06,40,8.50
2019,06,21,06,41,8.50
2019,06,21,06,42,8.50
2019,06,21,06,43,8.60
2019,06,21,06,44,8.60
2019,06,21,06,45,8.60
2019,06,21,06,46,8.60
2019,06,21,06,47,8.60
2019,06,21,06,48,8.60
2019,06,21,06,49,8.70
2019,06,21,06,50,8.80
2019,06,21,06,51,8.80
2019,06,21,06,52,8.80
2019,06,21,06,53,8.90
2019,06,21,06,54,8.90
2019,06,21,06,55,9.00
2019,06,21,06,56,9.10
2019,06,21,06,57,9.10
2019,06,21,06,58,9.20
2019,06,21,06,59,9.20
2019,06,21,07,00,9.30
2019,06,21,07,01,9.30
2019,06,21,07,02,9.40
2019,06,21,07,03,9.40
2019,06,21,07,04,9.50
2019,06,21,07,05,9.50
2019,06,21,07,06,9.60
2019,06,21,07,07,9.60
2019,06,21,07,08,9.60
2019,06,21,07,09,9.70
2019,06,21,07,10,9.70
2019,06,21,07,11,9.80
2019,06,21,07,12,9.80
2019,06,21,07,13,9.80
2019,06,21,07,14,9.80
2019,06,21,07,15,9.90
2019,06,21,07,16,9.90
2019,06,21,07,17,10.00
2019,06,21,07,18,10.00
2019,06,21,07,19,10.20
2019,06,21,07,20,10.20
2019,06,21,07,21,10.30
2019,06,21,07,22,10.40
2019,06,21,07,23,10.40
2019,06,21,07,24,10.50
2019,06,21,07,25,10.50
2019,06,21,07,26,10.60
2019,06,21,07,27,10.70
2019,06,21,07,28,10.80
2019,06,21,07,29,10.90
2019,06,21,07,30,11.00
2019,06,21,07,31,11.10
2019,06,21,07,32,11.20
2019,06,21,07,33,11.30
2019,06,21,07,34,11.40
2019,06,21,07,35,11.50
2019,06,21,07,36,11.70
2019,06,21,07,37,11.70
2019,06,21,07,38,11.80
2019,06,21,07,39,11.90
2019,06,21,07,40,11.90
2019,06,21,07,41,11.90
2019,06,21,07,42,12.00
2019,06,21,07,43,12.00
2019,06,21,07,44,12.10
2019,06,21,07,45,12.10
2019,06,21,07,46,12.10
2019,06,21,07,47,12.10
2019,06,21,07,48,12.20
2019,06,21,07,49,12.30
2019,06,21,07,50,12.30
2019,06,21,07,51,12.40
2019,06,21,07,52,12.50
2019,06,21,07,53,12.60
2019,06,21,07,54,12.70
2019,06,21,07,55,12.80
2019,06,21,07,56,12.90
2019,06,21,07,57,13.00
2019,06,21,07,58,13.00
2019,06,21,07,59,13.10
2019,06,21,08,00,13.10
2019,06,21,08,01,13.20
2019,06,21,08,02,13.20
2019,06,21,08,03,13.30
2019,06,21,08,04,13.30
2019,06,21,08,05,13.40
2019,06,21,08,06,13.40
2019,06,21,08,07,13.40
2019,06,21,08,08,13.50
2019,06,21,08,09,13.50
2019,06,21,08,10,13.60
2019,06,21,08,11,13.70
2019,06,21,08,12,13.90
2019,06,21,08,13,14.00
2019,06,21,08,14,14.10
2019,06,21,08,15,14.20
2019,06,21,08,16,14.30
2019,06,21,08,17,14.30
2019,06,21,08,18,14.40
2019,06,21,08,19,14.40
2019,06,21,08,20,14.40
2019,06,21,08,21,14.40
2019,06,21,08,22,14.40
2019,06,21,08,23,14.40
2019,06,21,08,24,14.50
2019,06,21,08,25,14.60
2019,06,21,08,26,14.70
2019,06,21,08,27,14.80
2019,06,21,08,28,14.90
2019,06,21,08,29,14.90
2019,06,21,08,30,15.00
2019,06,21,08,31,15.10
2019,06,21,08,32,15.20
2019,06,21,08,33,15.30
2019,06,21,08,34,15.30
2019,06,21,08,35,15.30
2019,06,21,08,36,15.20
2019,06,21,08,37,15.10
2019,06,21,08,38,15.10
2019,06,21,08,39,15.00
2019,06,21,08,40,15.00
2019,06,21,08,41,15.00
2019,06,21,08,42,15.10
2019,06,21,08,43,15.10
2019,06,21,08,44,15.20
2019,06,21,08,45,15.30
2019,06,21,08,46,15.40
2019,06,21,08,47,15.50
2019,06,21,08,48,15.60
2019,06,21,08,49,15.60
2019,06,21,08,50,15.80
2019,06,21,08,51,15.80
2019,06,21,08,52,15.90
2019,06,21,08,53,15.90
2019,06,21,08,54,15.90
2019,06,21,08,55,15.80
2019,06,21,08,56,15.80
2019,06,21,08,57,15.70
2019,06,21,08,58,15.70
2019,06,21,08,59,15.60
2019,06,21,09,00,15.60
2019,06,21,09,01,15.50
2019,06,21,09,02,15.50
2019,06,21,09,03,15.50
2019,06,21,09,04,15.60
2019,06,21,09,05,15.60
2019,06,21,09,06,15.60
2019,06,21,09,07,15.60
2019,06,21,09,08,15.60
2019,06,21,09,09,15.50
2019,06,21,09,10,15.50
2019,06,21,09,11,15.50
2019,06,21,09,12,15.50
2019,06,21,09,13,15.60
2019,06,21,09,14,15.60
2019,06,21,09,15,15.60
2019,06,21,09,16,15.60
2019,06,21,09,17,15.60
2019,06,21,09,18,15.70
2019,06,21,09,19,15.70
2019,06,21,09,20,15.70
2019,06,21,09,21,15.70
2019,06,21,09,22,15.70
2019,06,21,09,23,15.80
2019,06,21,09,24,15.80
2019,06,21,09,25,15.90
2019,06,21,09,26,15.90
2019,06,21,09,27,16.00
2019,06,21,09,28,16.10
2019,06,21,09,29,16.20
2019,06,21,09,30,16.20
2019,06,21,09,31,16.20
2019,06,21,09,32,16.20
2019,06,21,09,33,16.20
2019,06,21,09,34,16.30
2019,06,21,09,35,16.40
2019,06,21,09,36,16.60
2019,06,21,09,37,16.70
2019,06,21,09,38,16.90
2019,06,21,09,39,16.90
2019,06,21,09,40,16.90
2019,06,21,09,41,17.00
2019,06,21,09,42,17.00
2019,06,21,09,43,16.90
2019,06,21,09,44,16.90
2019,06,21,09,45,16.90
2019,06,21,09,46,17.00
2019,06,21,09,47,17.00
2019,06,21,09,48,17.10
2019,06,21,09,49,17.10
2019,06,21,09,50,17.10
2019,06,21,09,51,17.10
2019,06,21,09,52,17.10
2019,06,21,09,53,17.10
2019,06,21,09,54,17.20
2019,06,21,09,55,17.20
2019,06,21,09,56,17.20
2019,06,21,09,57,17.20
2019,06,21,09,58,17.20
2019,06,21,09,59,17.20
2019,06,21,10,00,17.20
2019,06,21,10,01,17.20
2019,06,21,10,02,17.20
2019,06,21,10,03,17.20
2019,06,21,10,04,17.30
2019,06,21,10,05,17.40
2019,06,21,10,06,17.50
2019,06,21,10,07,17.50
2019,06,21,10,08,17.60
2019,06,21,10,09,17.60
2019,06,21,10,10,17.70
2019,06,21,10,11,17.80
2019,06,21,10,12,17.90
2019,06,21,10,13,18.00
2019,06,21,10,14,18.10
2019,06,21,10,15,18.20
2019,06,21,10,16,18.30
2019,06,21,10,17,18.30
2019,06,21,10,18,18.40
2019,06,21,10,19,18.40
2019,06,21,10,20,18.50
2019,06,21,10,21,18.50
2019,06,21,10,22,18.60
2019,06,21,10,23,18.60
2019,06,21,10,24,18.60
2019,06,21,10,25,18.60
2019,06,21,10,26,18.60
2019,06,21,10,27,18.60
2019,06,21,10,28,18.60
2019,06,21,10,29,18.70
2019,06,21,10,30,18.80
2019,06,21,10,31,18.90
2019,06,21,10,32,19.00
2019,06,21,10,33,19.10
2019,06,21,10,34,19.10
2019,06,21,10,35,19.30
2019,06,21,10,36,19.40
2019,06,21,10,37,19.60
2019,06,21,10,38,19.70
2019,06,21,10,39,19.80
2019,06,21,10,40,19.80
2019,06,21,10,41,19.80
2019,06,21,10,42,19.80
2019,06,21,10,43,19.90
2019,06,21,10,44,19.90
2019,06,21,10,45,20.00
2019,06,21,10,46,20.00
2019,06,21,10,47,20.10
2019,06,21,10,48,20.10
2019,06,21,10,49,20.20
2019,06,21,10,50,20.20
2019,06,21,10,51,20.20
2019,06,21,10,52,20.20
2019,06,21,10,53,20.30
2019,06,21,10,54,20.40
2019,06,21,10,55,20.50
2019,06,21,10,56,20.60
2019,06,21,10,57,20.60
2019,06,21,10,58,20.60
2019,06,21,10,59,20.50
2019,06,21,11,00,20.40
2019,06,21,11,01,20.40
2019,06,21,11,02,20.40
2019,06,21,11,03,20.40
2019,06,21,11,04,20.40
2019,06,21,11,05,20.50
2019,06,21,11,06,20.50
2019,06,21,11,07,20.60
2019,06,21,11,08,20.70
2019,06,21,11,09,20.90
2019,06,21,11,10,21.00
2019,06,21,11,11,21.10
2019,06,21,11,12,21.20
2019,06,21,11,13,21.20
2019,06,21,11,14,21.20
2019,06,21,11,15,21.30
2019,06,21,11,16,21.30
2019,06,21,11,17,21.30
2019,06,21,11,18,21.30
2019,06,21,11,19,21.30
2019,06,21,11,20,21.20
2019,06,21,11,21,21.20
2019,06,21,11,22,21.20
2019,06,21,11,23,21.20
2019,06,21,11,24,21.30
2019,06,21,11,25,21.30
2019,06,21,11,26,21.30
2019,06,21,11,27,21.30
2019,06,21,11,28,21.30
2019,06,21,11,29,21.30
2019,06,21,11,30,21.40
2019,06,21,11,31,21.40
2019,06,21,11,32,21.40
2019,06,21,11,33,21.40
2019,06,21,11,34,21.50
2019,06,21,11,35,21.50
2019,06,21,11,36,21.50
2019,06,21,11,37,21.60
2019,06,21,11,38,21.70
2019,06,21,11,39,21.80
2019,06,21,11,40,21.90
2019,06,21,11,41,22.10
2019,06,21,11,42,22.20
2019,06,21,11,43,22.40
2019,06,21,11,44,22.40
2019,06,21,11,45,22.50
2019,06,21,11,46,22.60
2019,06,21,11,47,22.70
2019,06,21,11,48,22.60
2019,06,21,11,49,22.60
2019,06,21,11,50,22.50
2019,06,21,11,51,22.50
2019,06,21,11,52,22.40
2019,06,21,11,53,22.40
2019,06,21,11,54,22.40
2019,06,21,11,55,22.50
2019,06,21,11,56,22.50
2019,06,21,11,57,22.50
2019,06,21,11,58,22.60
2019,06,21,11,59,22.60
2019,06,21,12,00,22.70
2019,06,21,12,01,22.60
2019,06,21,12,02,22.60
2019,06,21,12,03,22.60
2019,06,21,12,04,22.60
2019,06,21,12,05,22.50
2019,06,21,12,06,22.60
2019,06,21,12,07,22.70
2019,06,21,12,08,22.80
2019,06,21,12,09,22.70
2019,06,21,12,10,22.70
2019,06,21,12,11,22.80
2019,06,21,12,12,22.80
2019,06,21,12,13,22.80
2019,06,21,12,14,22.80
2019,06,21,12,15,22.70
2019,06,21,12,16,22.70
2019,06,21,12,17,22.70
2019,06,21,12,18,22.70
2019,06,21,12,19,22.80
2019,06,21,12,20,22.80
2019,06,21,12,21,22.90
2019,06,21,12,22,23.00
2019,06,21,12,23,23.10
2019,06,21,12,24,23.10
2019,06,21,12,25,23.00
2019,06,21,12,26,23.00
2019,06,21,12,27,23.00
2019,06,21,12,28,22.90
2019,06,21,12,29,22.80
2019,06,21,12,30,22.80
2019,06,21,12,31,22.80
2019,06,21,12,32,22.80
2019,06,21,12,33,22.80
2019,06,21,12,34,22.90
2019,06,21,12,35,22.90
2019,06,21,12,36,22.90
2019,06,21,12,37,22.90
2019,06,21,12,38,22.90
2019,06,21,12,39,23.00
2019,06,21,12,40,23.00
2019,06,21,12,41,23.00
2019,06,21,12,42,23.10
2019,06,21,12,43,23.20
2019,06,21,12,44,23.30
2019,06,21,12,45,23.30
2019,06,21,12,46,23.30
2019,06,21,12,47,23.30
2019,06,21,12,48,23.30
2019,06,21,12,49,23.30
2019,06,21,12,50,23.20
2019,06,21,12,51,23.10
2019,06,21,12,52,23.10
2019,06,21,12,53,23.20
2019,06,21,12,54,23.20
2019,06,21,12,55,23.20
2019,06,21,12,56,23.20
2019,06,21,12,57,23.20
2019,06,21,12,58,23.30
2019,06,21,12,59,23.50
2019,06,21,13,00,23.60
2019,06,21,13,01,23.60
2019,06,21,13,02,23.70
2019,06,21,13,03,23.70
2019,06,21,13,04,23.80
2019,06,21,13,05,23.90
2019,06,21,13,06,23.90
2019,06,21,13,07,24.00
2019,06,21,13,08,24.10
2019,06,21,13,09,24.10
2019,06,21,13,10,24.00
2019,06,21,13,11,23.90
2019,06,21,13,12,23.90
2019,06,21,13,13,24.00
2019,06,21,13,14,24.00
2019,06,21,13,15,24.10
2019,06,21,13,16,24.10
2019,06,21,13,17,24.10
2019,06,21,13,18,24.10
2019,06,21,13,19,24.10
2019,06,21,13,20,24.10
2019,06,21,13,21,24.10
2019,06,21,13,22,24.10
2019,06,21,13,23,24.10
2019,06,21,13,24,24.10
2019,06,21,13,25,24.10
2019,06,21,13,26,24.10
2019,06,21,13,27,24.10
2019,06,21,13,28,24.00
2019,06,21,13,29,24.00
2019,06,21,13,30,23.90
2019,06,21,13,31,23.90
2019,06,21,13,32,23.90
2019,06,21,13,33,23.90
2019,06,21,13,34,23.90
2019,06,21,13,35,23.90
2019,06,21,13,36,23.90
2019,06,21,13,37,23.90
2019,06,21,13,38,23.90
2019,06,21,13,39,24.00
2019,06,21,13,40,24.10
2019,06,21,13,41,24.00
2019,06,21,13,42,24.00
2019,06,21,13,43,24.10
2019,06,21,13,44,24.10
2019,06,21,13,45,24.10
2019,06,21,13,46,24.10
2019,06,21,13,47,24.20
2019,06,21,13,48,24.20
2019,06,21,13,49,24.30
2019,06,21,13,50,24.40
2019,06,21,13,51,24.40
2019,06,21,13,52,24.30
2019,06,21,13,53,24.20
2019,06,21,13,54,24.20
2019,06,21,13,55,24.30
2019,06,21,13,56,24.30
2019,06,21,13,57,24.30
2019,06,21,13,58,24.30
2019,06,21,13,59,24.30
2019,06,21,14,00,24.40
2019,06,21,14,01,24.40
2019,06,21,14,02,24.50
2019,06,21,14,03,24.60
2019,06,21,14,04,24.70
2019,06,21,14,05,24.80
2019,06,21,14,06,24.70
2019,06,21,14,07,24.60
2019,06,21,14,08,24.50
2019,06,21,14,09,24.50
2019,06,21,14,10,24.60
2019,06,21,14,11,24.80
2019,06,21,14,12,24.80
2019,06,21,14,13,24.80
2019,06,21,14,14,24.70
2019,06,21,14,15,24.70
2019,06,21,14,16,24.70
2019,06,21,14,17,24.70
2019,06,21,14,18,24.60
2019,06,21,14,19,24.60
2019,06,21,14,20,24.60
2019,06,21,14,21,24.50
2019,06,21,14,22,24.40
2019,06,21,14,23,24.30
2019,06,21,14,24,24.30
2019,06,21,14,25,24.30
2019,06,21,14,26,24.30
2019,06,21,14,27,24.30
2019,06,21,14,28,24.20
2019,06,21,14,29,24.30
2019,06,21,14,30,24.30
2019,06,21,14,31,24.40
2019,06,21,14,32,24.50
2019,06,21,14,33,24.60
2019,06,21,14,34,24.60
2019,06,21,14,35,24.60
2019,06,21,14,36,24.70
2019,06,21,14,37,24.70
2019,06,21,14,38,24.80
2019,06,21,14,39,24.80
2019,06,21,14,40,24.90
2019,06,21,14,41,24.80
2019,06,21,14,42,24.80
2019,06,21,14,43,24.80
2019,06,21,14,44,24.80
2019,06,21,14,45,24.80
2019,06,21,14,46,24.80
2019,06,21,14,47,24.70
2019,06,21,14,48,24.60
2019,06,21,14,49,24.60
2019,06,21,14,50,24.50
2019,06,21,14,51,24.40
2019,06,21,14,52,24.50
2019,06,21,14,53,24.60
2019,06,21,14,54,24.70
2019,06,21,14,55,24.80
2019,06,21,14,56,24.80
2019,06,21,14,57,24.80
2019,06,21,14,58,24.80
2019,06,21,14,59,24.80
2019,06,21,15,00,24.90
2019,06,21,15,01,25.00
2019,06,21,15,02,25.00
2019,06,21,15,03,25.10
2019,06,21,15,04,25.10
2019,06,21,15,05,25.00
2019,06,21,15,06,25.10
2019,06,21,15,07,25.10
2019,06,21,15,08,25.20
2019,06,21,15,09,25.20
2019,06,21,15,10,25.30
2019,06,21,15,11,25.30
2019,06,21,15,12,25.30
2019,06,21,15,13,25.30
2019,06,21,15,14,25.20
2019,06,21,15,15,25.10
2019,06,21,15,16,25.20
2019,06,21,15,17,25.20
2019,06,21,15,18,25.20
2019,06,21,15,19,25.20
2019,06,21,15,20,25.20
2019,06,21,15,21,25.20
2019,06,21,15,22,25.30
2019,06,21,15,23,25.30
2019,06,21,15,24,25.40
2019,06,21,15,25,25.40
2019,06,21,15,26,25.40
2019,06,21,15,27,25.40
2019,06,21,15,28,25.40
2019,06,21,15,29,25.40
2019,06,21,15,30,25.40
2019,06,21,15,31,25.30
2019,06,21,15,32,25.30
2019,06,21,15,33,25.20
2019,06,21,15,34,25.10
2019,06,21,15,35,25.10
2019,06,21,15,36,25.10
2019,06,21,15,37,25.10
2019,06,21,15,38,25.30
2019,06,21,15,39,25.30
2019,06,21,15,40,25.20
2019,06,21,15,41,25.20
2019,06,21,15,42,25.10
2019,06,21,15,43,25.10
2019,06,21,15,44,25.10
2019,06,21,15,45,25.10
2019,06,21,15,46,25.00
2019,06,21,15,47,25.00
2019,06,21,15,48,25.00
2019,06,21,15,49,25.00
2019,06,21,15,50,24.90
2019,06,21,15,51,25.00
2019,06,21,15,52,25.00
2019,06,21,15,53,25.10
2019,06,21,15,54,25.10
2019,06,21,15,55,25.10
2019,06,21,15,56,24.90
2019,06,21,15,57,24.80
2019,06,21,15,58,24.80
2019,06,21,15,59,24.80
2019,06,21,16,00,24.80
2019,06,21,16,01,24.80
2019,06,21,16,02,24.70
2019,06,21,16,03,24.70
2019,06,21,16,04,24.70
2019,06,21,16,05,24.70
2019,06,21,16,06,24.60
2019,06,21,16,07,24.60
2019,06,21,16,08,24.50
2019,06,21,16,09,24.50
2019,06,21,16,10,24.50
2019,06,21,16,11,24.50
2019,06,21,16,12,24.50
2019,06,21,16,13,24.50
2019,06,21,16,14,24.60
2019,06,21,16,15,24.60
2019,06,21,16,16,24.60
2019,06,21,16,17,24.50
2019,06,21,16,18,24.40
2019,06,21,16,19,24.30
2019,06,21,16,20,24.30
2019,06,21,16,21,24.30
2019,06,21,16,22,24.30
2019,06,21,16,23,24.30
2019,06,21,16,24,24.30
2019,06,21,16,25,24.20
2019,06,21,16,26,24.20
2019,06,21,16,27,24.20
2019,06,21,16,28,24.20
2019,06,21,16,29,24.20
2019,06,21,16,30,24.20
2019,06,21,16,31,24.20
2019,06,21,16,32,24.30
2019,06,21,16,33,24.30
2019,06,21,16,34,24.30
2019,06,21,16,35,24.20
2019,06,21,16,36,24.20
2019,06,21,16,37,24.20
2019,06,21,16,38,24.20
2019,06,21,16,39,24.30
2019,06,21,16,40,24.30
2019,06,21,16,41,24.30
2019,06,21,16,42,24.30
2019,06,21,16,43,24.20
2019,06,21,16,44,24.30
2019,06,21,16,45,24.30
2019,06,21,16,46,24.20
2019,06,21,16,47,24.20
2019,06,21,16,48,24.20
2019,06,21,16,49,24.20
2019,06,21,16,50,24.20
2019,06,21,16,51,24.30
2019,06,21,16,52,24.30
2019,06,21,16,53,24.30
2019,06,21,16,54,24.30
2019,06,21,16,55,24.40
2019,06,21,16,56,24.40
2019,06,21,16,57,24.50
2019,06,21,16,58,24.50
2019,06,21,16,59,24.50
2019,06,21,17,00,24.60
2019,06,21,17,01,24.70
2019,06,21,17,02,24.70
2019,06,21,17,03,24.70
2019,06,21,17,04,24.60
2019,06,21,17,05,24.60
2019,06,21,17,06,24.60
2019,06,21,17,07,24.50
2019,06,21,17,08,24.40
2019,06,21,17,09,24.40
2019,06,21,17,10,24.30
2019,06,21,17,11,24.20
2019,06,21,17,12,24.20
2019,06,21,17,13,24.20
2019,06,21,17,14,24.20
2019,06,21,17,15,24.30
2019,06,21,17,16,24.30
2019,06,21,17,17,24.30
2019,06,21,17,18,24.30
2019,06,21,17,19,24.30
2019,06,21,17,20,24.30
2019,06,21,17,21,24.20
2019,06,21,17,22,24.30
2019,06,21,17,23,24.30
2019,06,21,17,24,24.30
2019,06,21,17,25,24.30
2019,06,21,17,26,24.30
2019,06,21,17,27,24.30
2019,06,21,17,28,24.20